Погода в Штормовом

Россия / Республика Крым     45°15′57″N   33°05′13″E
темп.,
°C
ветер,
м/с
пор.,
м/с
влажн.,
%
обл.,
%
осадки,
мм/ч
давл.,
гПа
погр.,
м
22 апреля, чт
чт2200:00+10юз45865 0.0 1020135
03:00+10юз44861 0.0 1020112
06:00+10ююз45855 0.0 1021140
09:00+11ююз46835 0.0 1022201
12:00+11ююз45805 0.0 1022227
15:00+12ююз57805 0.0 1022263
18:00+12ююз57820 0.0 1022211
21:00+11ю68840 0.0 1023150
23 апреля, пт
пт2300:00+11ю710834 0.0 1022226
03:00+11ю61084100 0.0 1022235
06:00+11ю7985100 0.0 1021237
09:00+11ю81183100 0.0 1021306
12:00+11ю91283100 0.0 1021341
15:00+11ююз81282100 0.0 1020295
18:00+11ююз71184100 0.0 1019247
21:00+11ююз7118690 0.0 1019253
24 апреля, сб
сб2400:00+11зюз5790100 0.0 1019223
03:00+10ссз239026 0.0 1019109
06:00+9с678669 0.0 1020332
09:00+10с45750 0.0 1021515
12:00+12сз44610 0.0 1021303
15:00+12сз67605 0.0 1021408
18:00+11сз6860100 0.0 1022483
21:00+10ссз6871100 0.0 1023397
25 апреля, вс
вс2500:00+10ссв5767100 0.0 1023376
03:00+9св4460100 0.0 1023200
06:00+8св5556100 0.0 1023209
09:00+9св5651100 0.0 1023415
12:00+11св4544100 0.0 1022930
15:00+12юз1245100 0.0 1021271
18:00+12юз1251100 0.0 1020309
21:00+10вюв67581 0.0 1021305
26 апреля, пн
пн2600:00+9вюв4454100 0.0 1020209
03:00+8в33512 0.0 1019152
06:00+8всв2250100 0.0 1019134
09:00+9в224939 0.0 1019199
12:00+10юз325136 0.0 1019278
15:00+11з66572 0.0 1019534
18:00+11з55630 0.0 1019640
21:00+10зюз12730 0.0 1020109